[[{"header":{"parameterUnit":"m.s-1","parameterCategory":1,"la1":30.2992,"la2":30.254,"lo1":-89.0895,"lo2":-89.0443,"dy":0.0025,"dx":0.0025,"nx":19,"ny":19,"refTime":"2026-05-20T21:00:00:Z","depth":0,"parameterNumber":2,"parameterNumberName":"U-component_of_WINDS"},"data":[0,0,0,-4.0214,-4.0216,-4.033,-4.0331,-4.048,-4.0482,0,0,0,0,0,0,0,0,0,0,0,-4.0183,-4.0184,-4.0214,-4.0217,-4.033,-4.0331,-4.048,-4.0482,0,0,0,0,0,0,0,0,0,0,0,-4.0183,-4.0184,-4.0185,-4.0217,-4.033,-4.0331,-4.048,-4.0392,0,0,0,0,0,0,0,0,0,0,-4.0281,-4.0256,-4.0184,-4.0185,-4.0218,-4.033,-4.0331,-4.0388,-4.0398,-4.0431,0,-4.0462,0,-4.0474,-4.0492,-4.0493,0,0,0,-4.0214,-4.0248,-4.0276,-4.0186,-4.0219,-4.033,-4.0278,-4.0393,-4.0404,-4.0444,-4.0464,-4.0469,-4.0477,-4.0493,-4.0494,-4.0695,-4.0696,0,0,-4.0208,-4.0205,-4.0268,-4.0283,-4.0267,-4.0275,-4.0282,-4.04,-4.0421,-4.0464,-4.0473,-4.0479,-4.0494,-4.0495,-4.0694,-4.0696,0,0,0,-4.0191,-4.0201,-4.0226,-4.0277,-4.0297,-4.0278,-4.0286,-4.0416,-4.0424,-4.0474,-4.0481,-4.0495,-4.0497,-4.0693,-4.0695,-4.0744,0,0,0,-4.0187,-4.0191,-4.0223,-4.0223,-4.0295,-4.0358,-4.03,-4.0416,-4.043,-4.048,-4.0495,-4.0498,-4.0692,-4.0694,-4.074,-4.0767,0,0,0,-4.0175,-4.019,-4.0207,-4.0222,-4.0272,-4.0356,-4.0372,-4.0419,-4.0434,-4.0493,-4.0499,-4.0691,-4.0694,-4.0737,-4.0761,-4.0818,0,0,0,-4.016,-4.025,-4.0208,-4.0311,-4.0271,-4.0387,-4.0371,-4.0458,-4.0514,-4.0496,-4.0692,-4.0695,-4.0736,-4.0758,-4.0814,-4.0864,-4.0885,0,0,-4.0271,-4.0263,-4.0324,-4.029,-4.0413,-4.037,-4.05,-4.0554,-4.0562,-4.065,-4.0655,-4.0741,-4.0761,-4.0817,-4.1007,-4.1024,0,0,0,-4.0358,-4.0401,-4.0435,-4.0489,-4.0533,-4.0573,-4.0607,-4.0627,-4.0703,-4.0607,-4.0779,-4.079,-4.0823,-4.0847,-4.0861,-4.0889,-4.0706,-4.0706,-4.0706,-4.051,-4.0516,-4.0617,-4.0637,-4.069,-4.0726,-4.0769,-4.0802,-4.0792,-4.0833,-4.0857,-4.0972,-4.1,-4.1011,-4.104,-4.0886,-4.0887,-4.0887,-4.0887,-4.0672,-4.0734,-4.0721,-4.0813,-4.0819,-4.0897,-4.0935,-4.0925,-4.0998,-4.0954,-4.0983,-4.0932,-4.1029,-4.1054,-4.0891,-4.089,-4.089,-4.0889,-4.0889,-4.077,-4.0801,-4.0825,-4.0904,-4.0965,-4.0983,-4.1053,-4.1057,-4.106,-4.109,-4.1116,-4.1115,-4.1112,-4.1103,-4.1103,-4.1103,-4.1104,-4.1104,-4.1104,-4.0861,-4.0887,-4.0946,-4.1002,-4.1037,-4.1085,-4.1123,-4.1157,-4.1196,-4.1193,-4.1193,-4.1178,-4.1038,-4.1001,-4.111,-4.1109,-4.1108,-4.1108,-4.1107,-4.1018,-4.0984,-4.1075,-4.1111,-4.1177,-4.1236,-4.1241,-4.1312,-4.1341,-4.1375,-4.1356,-4.1252,-4.1243,-4.1232,-4.1201,-4.1355,-4.1355,-4.1355,-4.1355,-4.1099,-4.1096,-4.119,-4.1247,-4.1303,-4.1317,-4.1419,-4.145,-4.1476,-4.1495,-4.1474,-4.1435,-4.1423,-4.142,-4.1405,-4.1376,-4.1572,-4.1572,-4.1572,-4.1195,-4.1198,-4.1284,-4.1311,-4.1363,-4.1407,-4.1503,-4.1568,-4.1591,-4.1581,-4.1509,-4.15,-4.1436,-4.1416,-4.1401,-4.1377,-4.1324,0,0]},{"header":{"parameterUnit":"m.s-1","parameterCategory":1,"la1":30.2992,"la2":30.254,"lo1":-89.0895,"lo2":-89.0443,"dy":0.0025,"dx":0.0025,"nx":19,"ny":19,"refTime":"2026-05-20T21:00:00:Z","depth":0,"parameterNumber":3,"parameterNumberName":"V-component_of_WINDS"},"data":[0,0,0,4.5725,4.5727,4.5842,4.5842,4.5973,4.5974,0,0,0,0,0,0,0,0,0,0,0,4.5684,4.5684,4.5725,4.5727,4.5842,4.5842,4.5973,4.5974,0,0,0,0,0,0,0,0,0,0,0,4.5683,4.5684,4.5685,4.5728,4.5842,4.5842,4.5973,4.5891,0,0,0,0,0,0,0,0,0,0,4.5782,4.5738,4.5684,4.5685,4.5728,4.5842,4.5842,4.5888,4.5896,4.5915,0,4.5932,0,4.5955,4.5982,4.5983,0,0,0,4.5732,4.5731,4.5768,4.5685,4.5729,4.5841,4.5791,4.5893,4.5903,4.5927,4.5934,4.594,4.5958,4.5983,4.5984,4.6083,4.6083,0,0,4.5726,4.57,4.5762,4.5774,4.5759,4.5788,4.5795,4.5899,4.5904,4.5935,4.5943,4.596,4.5984,4.5985,4.6083,4.6083,0,0,0,4.5704,4.5695,4.5731,4.5769,4.5791,4.5791,4.5799,4.59,4.5914,4.5944,4.5961,4.5984,4.5986,4.6083,4.6083,4.6073,0,0,0,4.5701,4.5683,4.5728,4.5713,4.5789,4.5847,4.5798,4.5906,4.5919,4.5961,4.5984,4.5987,4.6083,4.6083,4.6073,4.6072,0,0,0,4.5679,4.568,4.5695,4.5711,4.576,4.5846,4.5866,4.591,4.5929,4.5983,4.5987,4.6082,4.6083,4.6072,4.6072,4.6093,0,0,0,4.5647,4.5682,4.5694,4.574,4.5759,4.5839,4.5866,4.5926,4.5971,4.5985,4.6083,4.6083,4.6072,4.6072,4.6092,4.6107,4.611,0,0,4.5677,4.5685,4.5714,4.5728,4.58,4.5824,4.5893,4.5957,4.5983,4.6048,4.6051,4.6073,4.6072,4.6093,4.6134,4.6137,0,0,0,4.5714,4.5735,4.5759,4.5802,4.5853,4.5896,4.5952,4.5976,4.6032,4.6012,4.6085,4.6086,4.6099,4.6107,4.6109,4.6123,4.6085,4.6085,4.6085,4.5721,4.5755,4.5805,4.5854,4.5894,4.5952,4.5987,4.6029,4.605,4.6066,4.6086,4.6108,4.6116,4.6118,4.6132,4.6095,4.6095,4.6095,4.6095,4.5769,4.5805,4.5833,4.5892,4.5927,4.5976,4.6032,4.6046,4.6096,4.6095,4.6108,4.6107,4.612,4.6134,4.6094,4.6094,4.6095,4.6095,4.6095,4.578,4.5803,4.5832,4.5897,4.5943,4.5989,4.6036,4.6065,4.6093,4.6106,4.6131,4.6131,4.6136,4.6115,4.6115,4.6115,4.6115,4.6115,4.6115,4.578,4.5813,4.585,4.5907,4.5939,4.5983,4.604,4.6071,4.6113,4.613,4.6131,4.6151,4.6114,4.6106,4.6117,4.6117,4.6116,4.6116,4.6116,4.582,4.5816,4.5874,4.5906,4.5975,4.6018,4.6055,4.6115,4.6144,4.6166,4.6183,4.6151,4.6161,4.6159,4.6153,4.6175,4.6175,4.6175,4.6175,4.583,4.5838,4.5905,4.5953,4.6004,4.6043,4.6106,4.615,4.6194,4.6214,4.6214,4.6207,4.6204,4.6216,4.6213,4.6208,4.6243,4.6243,4.6244,4.5858,4.5872,4.5922,4.5967,4.6023,4.607,4.6131,4.6183,4.6232,4.6247,4.6231,4.6228,4.6217,4.6211,4.6227,4.6223,4.6213,0,0]}]]